This is the latest recevied weather packets stored in our database for station/object K1BWE-1. If no packets are shown the sender has not sent any weather packets the latest 10 day(s).
| Time | Temp. | Humidity | Pressure | Rain* | Wind** | Luminosity | Snow |
|---|---|---|---|---|---|---|---|
| 1777838648 | 28.33° C | 26% | 1014 hPa | 0 mm | - | 248 W/m² | - |
| 1777838345 | 27.78° C | 26% | 1014 hPa | 0 mm | - | 252 W/m² | - |
| 1777838042 | 28.33° C | 26% | 1014.1 hPa | 0 mm | - | 271 W/m² | - |
| 1777837739 | 28.33° C | 25% | 1014 hPa | 0 mm | - | 285 W/m² | - |
| 1777837435 | 28.33° C | 26% | 1014.1 hPa | 0 mm | - | 278 W/m² | - |
| 1777837131 | 28.89° C | 27% | 1014.3 hPa | 0 mm | - | 291 W/m² | - |
| 1777836827 | 28.89° C | 25% | 1014.5 hPa | 0 mm | - | 349 W/m² | - |
| 1777836523 | 28.89° C | 25% | 1014.4 hPa | 0 mm | - | 389 W/m² | - |
| 1777836219 | 28.33° C | 24% | 1014.3 hPa | 0 mm | - | 366 W/m² | - |
| 1777835915 | 28.33° C | 26% | 1014.5 hPa | 0 mm | - | 340 W/m² | - |
| 1777835612 | 28.33° C | 26% | 1014.5 hPa | 0 mm | - | 300 W/m² | - |
| 1777835309 | 28.33° C | 25% | 1014.4 hPa | 0 mm | - | 279 W/m² | - |
| 1777835006 | 28.33° C | 25% | 1014.4 hPa | 0 mm | - | 286 W/m² | - |
| 1777834703 | 28.33° C | 27% | 1014.4 hPa | 0 mm | - | 308 W/m² | - |
| 1777834399 | 28.33° C | 26% | 1014.5 hPa | 0 mm | - | 327 W/m² | - |
| 1777834094 | 28.33° C | 26% | 1014.7 hPa | 0 mm | - | 337 W/m² | - |
| 1777833791 | 28.33° C | 28% | 1015 hPa | 0 mm | - | 341 W/m² | - |
| 1777833486 | 27.78° C | 27% | 1014.9 hPa | 0 mm | - | 323 W/m² | - |
| 1777833184 | 27.78° C | 30% | 1015 hPa | 0 mm | - | 325 W/m² | - |
| 1777832880 | 28.33° C | 27% | 1015 hPa | 0 mm | - | 344 W/m² | - |
| 1777832580 | 28.33° C | 29% | 1015 hPa | 0 mm | - | 327 W/m² | - |
| 1777832276 | 28.33° C | 28% | 1015.2 hPa | 0 mm | - | 367 W/m² | - |
| 1777831974 | 28.33° C | 28% | 1015.1 hPa | 0 mm | - | 410 W/m² | - |
| 1777831670 | 27.78° C | 30% | 1015.1 hPa | 0 mm | - | 320 W/m² | - |
| 1777831368 | 27.78° C | 28% | 1015.5 hPa | 0 mm | - | 344 W/m² | - |
* Rain latest hour (hover to see other rain measurements)
** Current wind speed in m/s (hover to see current wind gust speed)